Theta_e
346 352 353 353 351 351 355 350 348 346 346 342 344 345 346 346 347 350 346 348 347 345 340 339 338 339 340 339 341 340 340 341 341 338 336 338 338 338 339 339 341 341 334 338 336 338 337 337 337
347 351 352 348 347 353 355 347 349 347 344 343 343 345 346 346 345 348 347 348 348 346 341 341 340 340 340 339 337 338 337 337 340 338 337 335 336 336 339 340 342 339 335 337 336 338 332 332 332
350 351 352 348 349 350 353 347 347 346 344 343 343 346 346 345 345 345 347 348 347 347 345 341 341 339 339 340 339 339 338 338 339 338 336 335 337 339 342 341 338 336 336 336 335 337 334 331 331
350 352 350 350 350 349 348 348 346 346 345 343 344 346 345 345 346 345 344 345 346 347 346 343 341 340 340 340 340 340 341 339 339 338 336 336 338 341 339 337 335 335 337 335 338 337 335 332 328
350 351 352 350 346 350 350 348 343 345 343 342 345 346 346 345 344 346 346 345 344 341 341 340 340 340 341 340 341 340 337 336 338 340 338 336 341 340 337 335 336 339 340 339 336 336 335 333 330
348 348 354 355 353 348 347 345 344 344 342 342 345 345 346 344 344 345 345 345 344 340 339 341 343 342 340 340 341 341 336 337 342 340 338 341 339 335 335 339 340 341 341 337 336 335 333 332 333
351 350 352 353 349 351 352 347 344 344 342 342 342 345 345 344 344 344 343 344 343 341 340 340 343 344 341 341 342 341 337 339 342 342 341 337 334 336 341 341 341 340 338 338 335 335 336 336 336
347 347 351 351 354 349 347 349 343 344 343 341 342 345 345 345 345 344 344 345 341 340 340 341 342 342 341 341 341 341 340 338 342 342 340 337 336 339 340 340 341 339 339 336 336 337 337 340 340
345 347 350 350 349 350 347 348 342 342 343 343 342 343 345 346 345 345 344 341 340 341 340 339 341 341 341 341 343 341 340 339 340 341 338 339 340 339 341 339 339 339 337 336 337 338 342 341 338
347 345 347 348 344 347 349 344 343 344 343 342 341 344 345 345 345 345 343 342 343 343 339 338 338 337 338 340 341 343 341 339 339 338 338 339 342 342 341 338 339 338 336 337 342 344 342 340 336
348 353 349 350 346 342 347 349 346 343 344 341 340 343 344 344 345 343 343 342 341 343 343 339 340 340 338 337 338 338 336 335 334 335 341 346 345 339 338 336 338 336 335 339 342 344 343 342 340
351 349 347 348 349 347 346 346 347 343 343 341 340 340 342 345 345 343 343 345 344 343 344 337 339 338 339 336 334 336 339 341 339 341 343 343 343 342 341 339 343 346 343 341 346 347 348 347 347
348 347 348 347 347 346 347 349 348 345 342 340 340 340 340 340 343 342 343 344 344 342 341 340 341 341 341 339 338 336 338 340 340 342 343 343 344 344 342 343 344 344 346 338 346 346 347 349 348
348 346 347 347 346 345 347 347 344 344 344 341 340 340 340 341 342 343 344 343 343 342 343 342 338 340 343 342 342 343 342 342 342 343 343 344 343 344 344 342 346 346 347 346 349 350 348 349 349
347 347 344 346 345 345 345 346 342 341 343 344 344 340 341 340 341 343 343 342 342 345 344 338 341 344 343 341 343 342 343 342 343 345 347 349 345 345 346 349 345 342 344 345 346 337 348 349 348
346 349 354 345 346 344 342 350 342 340 344 346 342 341 341 341 342 343 344 344 342 343 342 340 337 341 342 345 342 343 344 346 342 344 344 343 345 347 349 348 350 342 344 349 349 348 350 348 344
345 347 352 349 345 345 343 345 344 340 343 346 344 342 341 340 342 342 343 343 343 343 339 344 343 337 344 345 345 343 343 345 343 342 341 341 345 347 349 348 348 345 350 347 347 346 347 349 347
343 344 346 349 348 346 345 345 343 341 344 343 345 342 342 342 342 342 343 343 344 343 341 343 345 341 342 343 344 342 343 343 344 344 344 341 343 346 345 346 346 344 344 349 342 348 345 353 347
340 341 349 344 349 347 348 347 347 341 342 343 344 346 343 342 341 342 343 343 343 343 341 345 344 343 340 342 343 340 344 343 344 345 348 345 338 342 334 345 343 347 351 350 348 342 353 347 345
340 340 345 346 348 346 347 349 340 343 342 341 340 346 345 345 345 345 344 344 344 344 341 342 342 343 341 342 344 342 341 343 341 344 342 342 339 337 350 348 342 345 348 350 345 352 349 341 347
339 338 345 348 351 343 349 345 338 341 345 344 344 344 343 344 343 344 344 345 345 345 344 342 341 344 342 346 344 346 343 344 342 343 343 343 336 335 345 349 351 353 351 345 341 349 350 342 337
327 336 343 341 341 348 347 353 344 346 346 345 345 344 345 345 344 341 343 345 347 345 344 345 343 344 343 345 342 345 344 344 344 343 344 343 334 336 344 344 349 349 347 345 344 346 345 347 344
325 335 335 337 343 342 347 339 347 341 341 344 344 345 344 342 343 340 340 341 346 347 346 346 345 345 345 346 345 344 344 343 347 344 347 345 338 343 344 341 345 346 342 336 347 350 342 343 351
328 332 332 333 335 337 340 343 348 344 347 347 345 345 346 344 343 341 340 342 345 347 348 346 346 343 343 347 348 346 343 344 346 346 346 346 345 343 349 347 343 344 343 342 342 346 341 338 337
328 325 340 342 344 343 337 340 344 345 342 344 340 342 344 347 346 345 341 344 345 344 347 348 347 341 339 345 348 348 343 339 344 347 348 346 345 348 341 342 340 341 343 344 346 345 341 343 340
325 323 339 346 344 342 336 345 343 344 339 336 337 339 344 346 346 345 342 342 342 337 347 350 348 343 340 341 340 348 342 344 344 345 345 343 347 349 344 344 339 338 338 341 346 348 344 342 351
333 332 331 335 337 340 338 339 341 340 342 341 341 342 346 347 346 346 341 342 339 339 339 345 350 347 337 338 337 340 341 343 344 346 346 348 347 348 349 350 348 343 340 339 337 338 343 351 352
330 328 330 330 336 343 345 342 339 340 344 346 346 341 342 344 345 345 345 343 344 344 342 346 349 349 343 339 341 341 338 341 346 348 345 343 345 345 346 345 348 349 345 343 336 341 346 349 350
327 324 326 325 333 339 345 339 337 338 342 337 338 337 338 344 344 347 346 345 346 343 344 343 350 350 346 343 342 343 342 338 340 343 347 346 345 342 344 336 347 349 347 347 342 341 344 347 348
325 325 325 328 332 336 339 339 334 335 338 333 338 342 345 346 346 346 347 347 346 346 345 345 349 349 347 347 349 343 345 343 340 344 345 346 345 343 341 343 338 349 344 348 347 345 343 345 346
Wind_Speed
3 6 5 6 5 3 5 4 11 8 12 26 30 24 21 19 6 8 19 15 11 9 13 13 12 12 12 13 13 13 11 10 9 10 10 11 11 8 7 6 8 12 7 12 12 11 10 11 13
6 2 8 5 5 2 6 8 9 12 23 27 30 31 26 19 23 22 20 17 11 9 15 14 14 13 13 13 14 12 10 10 10 9 9 9 9 8 5 8 9 10 11 11 10 9 10 11 14
5 3 1 5 1 3 5 4 13 21 27 19 16 21 11 11 10 14 22 18 15 14 10 12 14 15 14 13 12 12 10 9 8 8 8 8 8 6 8 11 13 11 11 9 9 8 8 10 14
7 2 3 4 9 10 6 11 15 19 23 26 19 15 18 20 14 17 17 11 16 13 10 10 14 15 14 12 10 11 11 10 7 9 9 9 7 11 10 10 11 11 9 9 6 5 7 9 12
3 2 0 6 3 6 9 23 4 19 18 27 29 15 15 23 23 21 20 17 10 5 12 12 12 14 14 13 12 12 12 10 7 11 12 10 12 17 12 12 11 9 8 7 6 5 7 8 11
2 3 3 4 6 1 15 31 23 26 28 28 32 25 14 25 26 25 21 13 9 12 12 12 11 11 13 14 15 13 14 11 11 13 15 14 20 20 13 13 10 8 8 7 7 8 9 10 12
4 4 4 3 4 3 11 14 2 23 27 19 28 21 25 24 23 25 19 17 12 12 13 13 14 12 12 12 13 14 17 15 15 15 16 22 20 17 12 12 10 8 9 8 9 10 10 9 10
11 4 4 7 4 2 10 12 15 25 21 32 32 11 20 32 25 26 21 16 14 15 17 16 18 15 14 14 14 17 18 15 11 23 30 22 18 12 12 12 9 9 8 10 11 12 12 11 5
14 4 3 3 4 4 18 6 5 16 19 18 10 34 38 34 28 25 22 17 18 17 16 18 17 15 13 14 15 16 16 18 14 26 27 19 11 11 12 10 8 7 9 12 12 14 12 10 13
6 3 9 12 13 7 9 6 1 5 23 30 32 35 38 35 33 24 21 21 18 17 16 15 16 19 18 16 18 18 20 18 21 28 21 17 12 10 8 7 6 7 11 12 12 13 6 9 13
4 4 7 14 20 19 13 10 7 13 11 26 32 38 38 31 29 22 21 21 17 14 14 14 16 17 21 23 27 23 21 23 25 20 14 11 12 10 6 6 8 9 10 9 7 3 6 5 10
6 10 10 7 18 15 4 2 8 14 5 30 28 27 36 35 32 26 25 27 17 14 14 14 16 17 18 20 19 22 20 17 17 17 13 13 11 9 9 7 10 9 7 8 4 3 9 3 9
6 9 14 7 14 10 13 15 6 10 16 27 25 23 21 22 30 25 26 23 19 16 13 11 11 14 16 16 17 19 18 17 18 15 13 8 5 2 0 4 3 2 2 6 7 9 6 8 11
1 16 17 9 8 8 12 9 12 4 3 12 27 22 20 25 26 28 29 25 20 16 13 12 9 11 10 13 14 16 16 15 14 8 8 5 7 8 7 5 6 7 8 6 4 5 0 10 5
24 13 8 6 12 5 18 8 3 1 7 7 14 19 24 22 29 29 23 23 22 19 16 8 17 12 18 16 16 17 14 13 11 11 8 9 10 9 10 5 3 7 7 7 4 5 2 3 1
6 6 3 8 8 8 5 4 13 20 13 14 23 25 20 26 28 26 23 19 23 24 14 16 18 13 13 14 15 16 13 9 12 7 15 16 13 13 10 6 4 5 5 1 5 7 6 4 13
4 2 3 6 16 8 6 5 11 18 11 10 3 29 30 24 28 27 24 21 23 21 12 16 18 15 19 10 9 16 15 13 11 5 18 15 15 12 8 11 10 6 4 6 5 3 8 7 8
4 4 6 6 5 8 6 1 8 16 2 17 4 15 24 24 29 24 24 20 28 21 19 19 19 12 17 15 12 15 13 13 10 8 8 12 14 5 5 12 9 8 4 2 2 4 6 6 9
13 5 8 4 11 4 4 4 11 14 13 19 16 4 10 30 28 24 24 23 28 22 25 22 23 20 16 18 22 13 15 14 12 10 8 8 13 9 16 2 3 12 7 6 1 3 3 4 8
13 8 7 9 17 5 9 5 4 4 17 22 21 12 4 26 27 14 26 26 26 24 26 23 21 18 13 20 15 15 15 11 13 12 12 11 13 14 15 11 11 12 5 6 6 2 3 6 10
16 9 8 8 17 8 13 3 3 7 16 20 22 23 13 22 22 17 22 21 25 27 25 25 24 22 18 18 16 17 19 16 16 15 12 10 16 13 16 12 11 9 8 7 8 5 7 9 5
5 4 13 10 10 6 7 3 11 11 9 15 27 26 26 25 28 21 25 25 22 28 25 25 23 23 21 21 22 21 19 22 17 16 12 12 14 14 15 15 14 10 6 5 8 4 3 7 10
9 7 5 3 9 3 10 1 1 6 9 13 25 35 34 33 29 28 30 31 14 27 29 25 22 23 21 25 19 20 16 24 17 18 13 9 10 14 11 12 15 10 8 11 7 4 2 1 6
9 4 2 5 2 0 8 6 6 7 8 5 12 26 34 35 32 30 26 34 17 25 29 24 24 23 23 26 24 22 23 21 21 19 21 16 10 14 13 11 13 12 10 6 7 3 7 4 3
2 4 4 6 6 4 14 3 6 10 9 9 24 28 18 35 29 34 29 30 27 21 27 29 23 23 26 29 26 25 24 19 23 17 19 14 11 9 14 10 12 12 11 8 7 9 8 5 2
7 8 6 6 5 5 7 7 5 19 24 23 18 22 13 27 32 40 33 33 32 31 29 29 30 22 27 26 27 23 21 18 18 19 15 12 13 11 7 8 7 10 10 11 15 12 9 7 4
5 3 9 5 1 2 4 9 7 13 16 17 17 13 12 19 38 45 46 42 30 30 37 38 34 26 26 25 24 26 24 21 19 18 18 14 16 14 17 15 13 11 9 10 10 10 10 9 5
7 2 3 3 2 3 5 12 3 8 9 16 14 14 10 15 25 37 42 38 30 35 37 36 36 31 25 25 24 23 25 27 23 22 18 18 19 23 14 19 16 14 11 13 11 8 10 9 8
1 4 4 2 5 5 6 6 6 6 19 15 13 17 13 9 18 33 33 36 33 35 34 25 39 36 28 24 22 21 21 24 25 24 22 19 19 19 17 17 18 16 12 11 10 8 13 12 13
9 8 8 5 4 3 2 5 7 5 20 25 24 26 21 20 13 16 19 27 36 40 38 32 33 29 22 23 22 19 16 21 22 27 26 22 20 21 16 20 14 22 17 15 14 12 11 13 15
Wind_Direction
190 130 51 49 42 352 298 94 139 79 66 83 74 79 75 55 80 107 145 162 175 153 159 154 143 135 130 136 137 135 133 129 116 114 113 111 112 116 116 129 142 140 117 113 123 127 121 117 111
213 38 331 115 106 298 302 147 106 101 97 77 95 99 78 82 91 116 122 138 154 141 161 154 148 138 134 127 129 132 137 136 139 134 127 121 115 106 115 137 143 129 121 122 120 117 109 105 108
117 135 124 85 157 243 246 99 105 97 95 87 73 61 69 85 103 118 131 133 134 143 136 153 151 146 138 128 125 126 131 132 138 140 139 131 123 121 110 134 132 126 126 127 120 106 100 101 112
44 334 210 105 149 231 254 313 112 113 117 114 100 79 78 112 100 118 149 149 147 153 170 168 166 164 162 153 144 137 133 132 147 153 151 139 136 147 131 134 134 127 128 126 115 105 89 86 113
103 296 209 97 114 304 266 271 105 91 89 95 97 106 99 115 122 119 112 125 133 119 142 147 163 178 181 177 169 151 140 135 148 166 161 152 149 153 138 138 133 138 139 129 118 99 85 99 115
18 62 0 124 171 146 258 263 119 115 113 107 110 112 117 127 129 128 123 118 119 107 118 135 141 159 176 180 173 166 148 130 135 150 155 152 147 147 145 134 142 153 148 131 108 94 92 93 102
101 37 321 71 93 11 263 16 187 130 125 117 121 119 134 128 122 129 125 119 117 97 100 125 133 130 150 160 171 169 151 138 137 146 153 146 147 144 142 142 145 144 141 117 95 92 87 85 96
98 65 292 38 171 239 292 330 58 106 125 134 128 136 143 138 134 128 130 126 110 102 87 112 122 129 131 139 144 157 149 143 148 143 138 142 142 145 151 144 148 152 132 101 101 90 78 54 61
115 92 341 149 302 208 254 280 45 120 141 152 122 138 137 141 133 134 129 119 120 105 103 97 118 120 129 134 130 150 146 146 142 148 139 139 147 149 158 147 155 150 115 109 100 88 74 73 40
100 111 200 180 177 214 243 263 231 105 96 112 115 132 142 142 145 145 132 128 134 115 112 110 119 113 110 121 126 135 146 153 145 137 139 136 144 149 146 154 150 140 120 119 101 85 132 45 59
99 152 176 199 182 203 232 66 356 99 84 128 131 141 151 148 146 140 132 131 121 125 130 121 126 120 110 103 108 116 137 136 142 134 137 131 125 111 121 126 131 128 126 114 93 61 198 160 71
111 123 130 137 191 191 66 27 54 54 132 132 136 147 157 157 155 141 131 137 128 130 138 125 121 108 120 120 117 123 124 119 154 125 137 123 113 102 94 104 117 98 81 44 67 249 264 320 56
155 131 108 132 160 128 82 52 74 66 94 134 144 159 167 136 158 141 135 141 136 140 131 129 125 123 108 138 138 132 133 113 120 119 113 108 110 95 322 155 156 306 239 94 57 47 17 348 58
58 111 119 110 135 137 98 74 83 237 37 143 160 172 168 147 153 142 152 142 146 155 146 150 159 144 147 149 143 143 140 136 130 123 125 135 134 158 205 205 245 273 264 241 57 22 314 65 96
17 98 90 124 140 117 109 66 315 214 100 181 253 175 144 154 154 153 154 150 150 168 160 162 163 164 148 140 149 143 144 152 155 169 191 174 156 159 158 219 191 264 212 84 98 68 58 90 96
93 314 10 181 182 169 205 195 207 168 238 270 183 143 146 154 157 155 160 157 162 170 176 151 154 185 166 165 125 150 149 167 161 201 194 185 169 186 196 176 216 142 149 227 249 298 32 67 20
272 178 145 210 212 163 193 139 196 198 227 234 112 150 165 163 162 159 166 166 160 171 164 173 156 152 163 173 152 165 157 160 183 133 185 179 174 187 208 164 147 174 252 260 249 338 23 26 51
206 141 156 230 237 175 143 100 146 190 166 223 280 164 166 169 156 162 171 178 169 172 160 185 182 170 182 171 181 162 168 163 189 204 156 163 169 200 236 151 144 181 215 4 57 12 23 10 23
233 151 166 257 197 125 148 49 354 182 187 249 224 240 216 162 166 165 178 177 181 181 164 178 180 185 175 177 181 188 178 175 185 194 186 188 185 180 168 220 212 201 215 130 143 231 325 49 33
192 180 190 233 165 112 115 110 277 240 198 218 230 228 177 152 161 154 175 181 183 185 180 188 196 197 180 170 164 167 185 185 194 202 222 235 224 184 182 189 193 207 233 144 159 209 167 57 18
217 200 165 199 171 80 121 84 230 282 213 216 233 218 188 166 163 183 165 191 186 185 188 191 202 206 196 180 183 191 187 192 198 221 226 230 221 208 196 201 226 229 204 156 160 149 43 93 322
311 137 162 184 164 199 199 206 217 230 207 204 215 180 187 175 171 169 207 194 195 198 197 200 203 208 198 196 193 199 187 191 207 216 226 245 215 198 198 216 223 241 197 174 165 161 38 62 62
255 169 255 245 193 203 199 110 89 150 200 210 204 191 192 194 184 195 214 219 210 202 198 205 212 214 201 198 183 204 201 188 200 202 211 209 205 194 207 215 228 243 201 207 180 137 312 358 63
249 172 212 297 300 322 221 161 205 203 206 159 208 193 190 198 199 193 201 203 223 200 196 207 213 214 206 195 193 200 209 200 200 204 209 209 215 202 195 215 223 228 218 212 207 245 265 269 296
56 358 14 20 7 234 287 327 224 191 194 201 207 206 194 183 199 194 192 192 207 214 199 210 220 211 199 196 202 201 206 205 197 198 190 209 212 204 212 234 219 227 235 248 250 247 256 249 271
192 179 150 178 207 250 317 141 229 181 192 207 228 204 197 184 187 189 192 184 216 211 200 205 220 217 204 205 207 208 216 202 198 192 192 199 228 238 208 217 223 235 239 228 243 248 252 249 258
224 173 206 156 315 85 0 317 76 165 199 220 218 213 198 195 182 191 190 196 216 207 206 205 210 218 208 212 211 212 214 217 206 190 184 199 211 215 219 228 240 236 244 258 251 248 227 234 238
194 239 38 316 235 130 27 275 148 154 148 99 120 121 159 180 184 191 199 204 194 210 209 208 215 216 207 208 212 216 216 217 217 205 208 220 228 228 225 218 212 236 240 252 249 217 196 228 247
275 262 261 179 150 145 168 252 192 141 124 125 145 136 137 202 227 202 204 214 202 193 197 215 218 217 215 208 212 215 222 222 218 215 214 221 226 223 220 235 220 214 226 231 236 225 223 228 249
213 230 185 132 290 82 94 306 219 126 136 132 147 153 162 186 204 196 184 194 202 196 202 202 205 199 216 222 219 214 224 228 225 219 220 222 226 226 237 229 227 215 219 225 237 236 235 240 246